AirNav   SIMCOM
 
 341 users online  

MO48 Red Oak Airport
Owensville, Missouri, USA


FAA INFORMATION EFFECTIVE 07 DECEMBER 2017

Location

FAA Identifier: MO48
Lat/Long: 38-20-14.3100N / 091-25-16.9900W
38-20.238500N / 091-25.283167W
38.3373083 / -91.4213861
(estimated)
Elevation: 745 ft. / 227 m (estimated)
Time zone: UTC -6 (UTC -5 during Daylight Saving Time)
Zip code: 63091

Airport Operations

Airport use: Private use. Permission required prior to landing
Activation date: 08/2015
Control tower: no
ARTCC: KANSAS CITY CENTER
FSS: SAINT LOUIS FLIGHT SERVICE STATION
Attendance: UNATNDD
Segmented circle: no

Airport Communications

WX AWOS-3 at UUV (14 nm SE): 119.375 (573-860-2596)

Nearby radio navigation aids

VOR radial/distance  VOR name  Freq  Var
VIHr045/17.4VICHY VOR/DME117.7006E
FTZr220/30.1FORISTELL VORTAC110.8005E

 
NDB name  Hdg/Dist  Freq  Var  ID
SULLIVAN295/13.635602EUUV ..- ..- ...-

Airport Services

Runway Information

Runway 12/30

Dimensions: 1661 x 40 ft. / 506 x 12 m
Surface: turf/gravel
RUNWAY 12  RUNWAY 30
Latitude: 38-20.304333N38-20.172667N
Longitude: 091-25.435500W091-25.130833W
Elevation: 747.0 ft.740.0 ft.
Traffic pattern: leftleft

Airport Ownership and Management from official FAA records

Ownership: Privately-owned
Owner: PHIL HORSTMANN
PO BOX 1831
WILSON, WY 83014
Phone 314-713-4866
Manager: PHIL HORSTMANN
PO BOX 1831
WILSON, WY 83014
Phone 314-713-4866

Instrument Procedures

There are no published instrument procedures at MO48.

Some nearby airports with instrument procedures:

KUUV - Sullivan Regional Airport (14 nm SE)
KUBX - Cuba Municipal Airport (16 nm S)
KVIH - Rolla National Airport (21 nm SW)
KFYG - Washington Regional Airport (25 nm NE)
KJEF - Jefferson City Memorial Airport (38 nm NW)
 
Loc | Ops | Rwys | IFR | FBO | Links
Com | Nav | Svcs | Stats | Notes


 
Aerial photo
No photo
 
Airport distance calculator
Flying to Red Oak Airport? Find the distance to fly.

From to MO48

Sunrise and sunset
Times for 17-Dec-2017
 Local
(UTC-6)
 Zulu
(UTC)
Morning civil twilight06:4812:48
Sunrise07:1813:18
Sunset16:4622:46
Evening civil twilight17:1623:16

Current date and time
Zulu (UTC)  17-Dec-2017 10:18:21
Local (UTC-6)  17-Dec-2017 04:18:21
 
METAR
KVIH 
20nm SW 
170953Z AUTO 18009KT 10SM FEW120 07/M02 A3006 RMK AO2 SLP178 T00721017
KFYG 
25nm NE 
170955Z AUTO 00000KT 10SM SCT095 OVC120 08/M02 A3006 RMK AO2
KJEF 
38nm NW 
170953Z AUTO 13005KT 10SM OVC090 07/M01 A3004 RMK AO2 SLP163 T00671011
TAF
KSUS 
41nm NE 
170530Z 1706/1806 VRB03KT P6SM OVC250 FM170900 VRB03KT P6SM OVC110 FM171300 VRB03KT P6SM -RA OVC050 FM171700 19006KT P6SM OVC015 FM180200 VRB03KT 6SM BR BKN025
KCOU 
47nm NW 
170530Z 1706/1806 18008KT P6SM OVC250 FM171100 18006KT P6SM -RA OVC050 FM171300 18006KT 6SM -RA BR OVC015 FM171500 19007KT 4SM BR OVC008 FM171900 21008KT P6SM OVC015 FM180000 21005KT 6SM BR BKN025
NOTAMs
Click for the latest NOTAMs
NOTAMs are issued by the DoD/FAA and will open in a separate window not controlled by AirNav.

 

 
 

Would you like to see your business listed on this page?

 If your business provides an interesting product or service to pilots, flight crews, aircraft, or users of the Red Oak Airport, you should consider listing it here.  To start the listing process, click on the button below
 
Add a business
 

Other Pages about Red Oak Airport

Update a link
 
Copyright © AirNav, LLC. All rights reserved. Privacy Policy  Contact